[[{"header":{"parameterUnit":"m.s-1","parameterCategory":1,"la1":30.2991,"la2":30.254,"lo1":-89.0895,"lo2":-89.0444,"dx":0.0017,"dy":0.0017,"nx":28,"ny":28,"refTime":"2022-11-16T03:00:00:Z","depth":0,"parameterNumber":2,"parameterNumberName":"U-component_of_WINDS"},"data":[0,0,0,0,0,0,0,0,0,0,0,0,0,0,0,0,0,0,0,0,0,0,0,0,0,0,0,0,0,0,0,0,0,0,0,0,0,0,0,0,0,0,0,0,0,0,0,0,0,0,0,0,0,0,0,0,0,0,0.2777,0.2776,0,0.2711,0.271,0.271,0.2724,0.2725,0.2726,0.2727,0.2656,0.2653,0.265,0,0,0,0,0,0,0,0,0,0,0,0,0,0.291,0.2908,0.2777,0.2776,0.2775,0.2711,0.271,0.2709,0.2723,0.2725,0.2726,0.2728,0.2657,0.2653,0.2649,0,0,0,0,0,0,0,0,0,0,0,0,0,0.2849,0.2907,0.2777,0.2774,0.2774,0.2711,0.271,0.2709,0.2723,0.2725,0.2727,0.2729,0.2658,0.2653,0.2649,0.2583,0,0,0.2635,0.2633,0,0,0,0,0,0,0,0,0.2853,0.2844,0.2776,0.2775,0.2773,0.2728,0.2731,0.2667,0.2723,0.2742,0.2727,0.2729,0.2678,0.2672,0.2655,0.258,0.2577,0.2634,0.2632,0.263,0.2628,0,0,0,0,0,0,0,0.2857,0.2847,0.2751,0.2775,0.2773,0.2775,0.2769,0.2719,0.27,0.2741,0.2741,0.2734,0.2677,0.2659,0.2653,0.2576,0.2634,0.263,0.2628,0.2626,0.2443,0.2442,0,0,0,0,0,0,0.2863,0.2851,0.2753,0.2749,0.2819,0.2772,0.2764,0.274,0.2701,0.2697,0.2732,0.2735,0.2666,0.2659,0.2651,0.2571,0.263,0.2625,0.2623,0.2446,0.2443,0.2441,0,0,0,0,0,0,0.2865,0.2854,0.2755,0.28,0.2788,0.2767,0.274,0.2738,0.272,0.2695,0.2691,0.2717,0.2668,0.2657,0.26,0.2569,0.2623,0.2619,0.2448,0.2445,0.2442,0.2411,0,0,0,0,0,0,0.2869,0.2855,0.283,0.2799,0.2785,0.2707,0.2739,0.2735,0.2713,0.2715,0.268,0.2676,0.2668,0.2607,0.2596,0.2563,0.2615,0.2451,0.2447,0.2443,0.2415,0.2407,0.2401,0,0,0,0,0,0.2874,0.2823,0.2829,0.2817,0.2754,0.2705,0.2696,0.269,0.271,0.2685,0.2669,0.2677,0.2575,0.2601,0.2588,0.2554,0.2453,0.2448,0.2443,0.2418,0.2409,0.2401,0,0,0,0,0,0,0.2849,0.2819,0.2825,0.2763,0.2737,0.2707,0.2675,0.2681,0.2647,0.265,0.2643,0.2635,0.2576,0.256,0.259,0.2489,0.2516,0.2509,0.2501,0.2492,0.2486,0.249,0.2612,0,0,0,0,0,0.2837,0.2801,0.2776,0.2724,0.271,0.2695,0.2673,0.2671,0.2642,0.2631,0.261,0.2581,0.2542,0.2517,0.248,0.2413,0.2405,0.2384,0.2377,0.2371,0.2364,0.2327,0.2316,0.2425,0.2425,0.2425,0,0,0.2811,0.279,0.2767,0.2718,0.2697,0.2658,0.2685,0.2643,0.2613,0.2624,0.2568,0.2553,0.252,0.2457,0.2429,0.2442,0.2333,0.2365,0.2361,0.2357,0.2321,0.231,0.2301,0.2422,0.2423,0.2423,0,0,0.2742,0.2723,0.2677,0.2657,0.2625,0.2616,0.2605,0.2575,0.2565,0.251,0.2517,0.2482,0.2416,0.2392,0.2371,0.2295,0.2301,0.2283,0.2246,0.221,0.2201,0.2193,0.2165,0.2155,0.2277,0.2277,0.2277,0,0.2712,0.2655,0.2653,0.261,0.2588,0.2598,0.255,0.253,0.2487,0.2471,0.2487,0.2405,0.2383,0.2315,0.2297,0.228,0.2266,0.2286,0.2203,0.2195,0.2188,0.216,0.215,0.2275,0.2275,0.2275,0.2275,0,0.262,0.258,0.2547,0.2507,0.2481,0.2436,0.2426,0.24,0.2401,0.239,0.2333,0.2308,0.2266,0.225,0.225,0.2182,0.2191,0.2205,0.2232,0.2175,0.2149,0.2139,0.2272,0.2272,0.2273,0.2273,0,0,0.2531,0.2493,0.248,0.2462,0.2429,0.2398,0.2353,0.2314,0.2291,0.2262,0.2223,0.2168,0.2181,0.2158,0.2155,0.2123,0.2063,0.2141,0.214,0.2126,0.1985,0.1973,0.1961,0.2068,0.2066,0.2065,0.1988,0,0.2458,0.2381,0.2378,0.2307,0.2269,0.2279,0.224,0.2215,0.2204,0.2169,0.2157,0.2117,0.2138,0.2124,0.2093,0.2077,0.2035,0.2083,0.203,0.2028,0.2036,0.1948,0.1935,0.1864,0.1978,0.1976,0.1975,0,0.2362,0.2332,0.2257,0.223,0.2214,0.2179,0.2143,0.2111,0.2082,0.2076,0.2051,0.2053,0.2006,0.2037,0.1972,0.2005,0.1983,0.1972,0.1969,0.1962,0.1996,0.1936,0.1841,0.1829,0.1959,0.196,0.1961,0,0.2303,0.2243,0.2191,0.2176,0.2143,0.2118,0.2103,0.2077,0.2053,0.2022,0.2006,0.1969,0.1948,0.1919,0.191,0.1934,0.1845,0.1875,0.1837,0.1837,0.1815,0.1816,0.1712,0.1805,0.1805,0.1805,0.1806,0,0.222,0.2174,0.2164,0.2131,0.2079,0.2077,0.2025,0.2012,0.1988,0.1952,0.1959,0.1925,0.1917,0.1881,0.1875,0.1821,0.1812,0.1804,0.1803,0.1802,0.1803,0.1786,0.179,0.1803,0.1803,0.1804,0.1804,0,0.2144,0.2136,0.2079,0.2054,0.2046,0.2009,0.1986,0.1955,0.1945,0.19,0.1889,0.1873,0.1831,0.1821,0.1771,0.1766,0.1702,0.1706,0.1712,0.1711,0.1673,0.1676,0.1553,0.1536,0.1642,0.1641,0.164,0,0.2091,0.2055,0.2027,0.2004,0.1988,0.1951,0.1928,0.1924,0.1899,0.1865,0.1837,0.1797,0.1764,0.1697,0.168,0.1641,0.1643,0.1603,0.1637,0.1638,0.164,0.1642,0.1637,0.1595,0.1594,0.1593,0.1593,0,0.1996,0.1994,0.1961,0.1926,0.1899,0.1871,0.1844,0.1825,0.1818,0.1789,0.1748,0.1722,0.1672,0.1631,0.1593,0.1576,0.1582,0.1583,0.1571,0.1569,0.1573,0.1569,0.1692,0.1585,0.1585,0.1586,0.1586,0.1587,0.1928,0.1897,0.1872,0.1835,0.1815,0.179,0.1759,0.1747,0.1712,0.1672,0.1672,0.1626,0.1599,0.1548,0.153,0.1493,0.1505,0.1489,0.1485,0.148,0.1476,0.1582,0.1486,0.1487,0.1487,0.1487,0.1487,0,0.1832,0.1817,0.1783,0.1747,0.1717,0.1729,0.17,0.1674,0.1634,0.1609,0.1577,0.1529,0.149,0.1471,0.1432,0.1406,0.1408,0.1396,0.1396,0.1392,0.1468,0.1481,0.1395,0.1395,0.1395,0.1395,0.1395,0.1395,0.1779,0.1726,0.1722,0.166,0.1645,0.1601,0.1583,0.156,0.154,0.1487,0.1455,0.1444,0.1421,0.138,0.1345,0.134,0.1324,0.131,0.1307,0.1378,0.1387,0.1396,0.1407,0.1307,0.1307,0.1233,0.1232,0.1232]},{"header":{"parameterUnit":"m.s-1","parameterCategory":1,"la1":30.2991,"la2":30.254,"lo1":-89.0895,"lo2":-89.0444,"dx":0.0017,"dy":0.0017,"nx":28,"ny":28,"refTime":"2022-11-16T03:00:00:Z","depth":0,"parameterNumber":3,"parameterNumberName":"V-component_of_WINDS"},"data":[0,0,0,0,0,0,0,0,0,0,0,0,0,0,0,0,0,0,0,0,0,0,0,0,0,0,0,0,0,0,0,0,0,0,0,0,0,0,0,0,0,0,0,0,0,0,0,0,0,0,0,0,0,0,0,0,0,0,-6.832,-6.8321,0,-6.8466,-6.8467,-6.8469,-6.8382,-6.8378,-6.8374,-6.837,-6.8515,-6.8523,-6.853,0,0,0,0,0,0,0,0,0,0,0,0,0,-6.7962,-6.7969,-6.832,-6.8322,-6.8323,-6.8465,-6.8467,-6.8469,-6.8383,-6.8378,-6.8373,-6.8368,-6.8513,-6.8522,-6.8531,0,0,0,0,0,0,0,0,0,0,0,0,0,-6.8113,-6.7971,-6.8319,-6.8298,-6.8297,-6.8465,-6.8468,-6.847,-6.8384,-6.8378,-6.8372,-6.8366,-6.851,-6.8521,-6.8532,-6.8729,0,0,-6.8568,-6.8573,0,0,0,0,0,0,0,0,-6.8105,-6.8127,-6.8299,-6.8299,-6.8299,-6.84,-6.8394,-6.8557,-6.8386,-6.8351,-6.837,-6.8363,-6.8481,-6.8495,-6.8536,-6.8735,-6.8742,-6.8569,-6.8576,-6.8581,-6.8584,0,0,0,0,0,0,0,-6.8094,-6.812,-6.8377,-6.8302,-6.8302,-6.8279,-6.8294,-6.8425,-6.8449,-6.8354,-6.8348,-6.8366,-6.848,-6.8525,-6.8539,-6.8744,-6.8568,-6.8579,-6.8586,-6.859,-6.9111,-6.9117,0,0,0,0,0,0,-6.8086,-6.8112,-6.8373,-6.8382,-6.8185,-6.829,-6.8307,-6.8374,-6.8448,-6.8453,-6.8372,-6.8362,-6.8508,-6.8525,-6.8543,-6.8778,-6.8581,-6.8591,-6.8598,-6.9104,-6.9112,-6.9119,0,0,0,0,0,0,-6.8079,-6.811,-6.8367,-6.8245,-6.8276,-6.8303,-6.8379,-6.838,-6.8424,-6.8461,-6.8465,-6.8413,-6.8504,-6.8527,-6.8683,-6.8782,-6.8597,-6.8607,-6.9096,-6.9106,-6.9116,-6.9249,0,0,0,0,0,0,-6.8069,-6.8108,-6.8184,-6.8248,-6.8283,-6.8506,-6.8385,-6.8387,-6.8445,-6.8434,-6.8501,-6.8506,-6.8501,-6.8667,-6.8695,-6.8794,-6.8616,-6.9087,-6.91,-6.9113,-6.9236,-6.9262,-6.9285,0,0,0,0,0,-6.8056,-6.8215,-6.8189,-6.8221,-6.8379,-6.8512,-6.8532,-6.8524,-6.8453,-6.8529,-6.8553,-6.8504,-6.8766,-6.8683,-6.8714,-6.8819,-6.9081,-6.9097,-6.9112,-6.9225,-6.9257,-6.9285,0,0,0,0,0,0,-6.8161,-6.8223,-6.8194,-6.8378,-6.8441,-6.8497,-6.8593,-6.8559,-6.8641,-6.8627,-6.8612,-6.8628,-6.8791,-6.882,-6.8727,-6.9012,-6.8912,-6.8935,-6.8988,-6.9019,-6.9043,-6.9033,-6.8626,0,0,0,0,0,-6.8206,-6.8311,-6.8358,-6.8516,-6.8549,-6.8566,-6.8624,-6.8612,-6.8675,-6.8701,-6.8736,-6.8798,-6.8894,-6.8958,-6.9048,-6.9239,-6.9252,-6.9326,-6.9351,-6.9371,-6.9391,-6.9493,-6.9527,-6.917,-6.917,-6.917,0,0,-6.8299,-6.8346,-6.8412,-6.8538,-6.8585,-6.8692,-6.8589,-6.8706,-6.8785,-6.8718,-6.8869,-6.8896,-6.8964,-6.9139,-6.9217,-6.9168,-6.9492,-6.9391,-6.9407,-6.9415,-6.9513,-6.9546,-6.9576,-6.9181,-6.9179,-6.9177,0,0,-6.8524,-6.857,-6.8706,-6.8756,-6.8829,-6.8839,-6.8872,-6.8934,-6.895,-6.9101,-6.9053,-6.9145,-6.9312,-6.9362,-6.941,-6.9653,-6.9611,-6.9683,-6.9812,-6.9913,-6.9941,-6.9965,-7.0052,-7.0084,-6.9702,-6.9703,-6.9703,0,-6.863,-6.8791,-6.878,-6.8903,-6.8959,-6.8904,-6.9042,-6.9089,-6.9188,-6.9227,-6.9171,-6.9379,-6.9421,-6.9606,-6.9666,-6.9706,-6.9742,-6.9676,-6.9938,-6.9963,-6.9985,-7.0068,-7.0101,-6.9711,-6.971,-6.9709,-6.9708,0,-6.8918,-6.903,-6.9132,-6.923,-6.9297,-6.9426,-6.9434,-6.9503,-6.9485,-6.9501,-6.9655,-6.9703,-6.9803,-6.9846,-6.9829,-7.0029,-6.9996,-6.994,-6.9838,-7.0028,-7.0105,-7.0137,-6.9723,-6.972,-6.9717,-6.9715,0,0,-6.9213,-6.9304,-6.9341,-6.9385,-6.9461,-6.9547,-6.9673,-6.9772,-6.9832,-6.9901,-7.0005,-7.0147,-7.0095,-7.0149,-7.0137,-7.0226,-7.0415,-7.0158,-7.0159,-7.0204,-7.0638,-7.0681,-7.0718,-7.0387,-7.0393,-7.0398,-7.0632,0,-6.9443,-6.9665,-6.9659,-6.9864,-6.9968,-6.9917,-7.0026,-7.0084,-7.0102,-7.0191,-7.0209,-7.0311,-7.0234,-7.0267,-7.0351,-7.0374,-7.0502,-7.0357,-7.0484,-7.0488,-7.0469,-7.0758,-7.0803,-7.1022,-7.0662,-7.0667,-7.0671,0,-6.974,-6.9821,-7.0038,-7.0099,-7.0142,-7.0241,-7.0331,-7.0417,-7.0481,-7.0487,-7.0548,-7.0522,-7.0648,-7.0544,-7.0717,-7.0618,-7.0669,-7.0688,-7.0697,-7.0708,-7.0592,-7.0777,-7.1092,-7.1125,-7.0719,-7.0715,-7.0711,0,-6.9934,-7.0097,-7.0248,-7.0287,-7.0362,-7.0432,-7.0467,-7.0525,-7.0584,-7.0662,-7.07,-7.0791,-7.0841,-7.0911,-7.091,-7.0834,-7.1085,-7.098,-7.1093,-7.1093,-7.1149,-7.1145,-7.1476,-7.1181,-7.1181,-7.118,-7.1179,0,-7.0192,-7.0326,-7.0336,-7.0429,-7.0578,-7.0569,-7.0716,-7.0742,-7.0795,-7.089,-7.0851,-7.0942,-7.0934,-7.1026,-7.1025,-7.1168,-7.1191,-7.1199,-7.1197,-7.1203,-7.1202,-7.1236,-7.1221,-7.1189,-7.1187,-7.1185,-7.1184,0,-7.0434,-7.0446,-7.0607,-7.0665,-7.0682,-7.079,-7.0838,-7.0926,-7.094,-7.1062,-7.109,-7.1112,-7.1217,-7.1222,-7.1343,-7.1343,-7.1517,-7.1498,-7.1496,-7.1493,-7.1605,-7.1595,-7.1969,-7.2018,-7.1692,-7.1695,-7.1698,0,-7.0597,-7.07,-7.0769,-7.0832,-7.087,-7.0971,-7.1032,-7.1026,-7.1091,-7.1171,-7.1249,-7.135,-7.1432,-7.1602,-7.1627,-7.1719,-7.1702,-7.1827,-7.1716,-7.1718,-7.1704,-7.1699,-7.1709,-7.1849,-7.1853,-7.1856,-7.1858,0,-7.0886,-7.0887,-7.0978,-7.1071,-7.1145,-7.1218,-7.1285,-7.1337,-7.1339,-7.1414,-7.1522,-7.1585,-7.1709,-7.181,-7.1899,-7.1932,-7.1896,-7.1893,-7.1924,-7.1931,-7.1926,-7.193,-7.1556,-7.1885,-7.1882,-7.188,-7.1879,-7.1877,-7.1094,-7.1183,-7.1246,-7.1348,-7.1398,-7.1462,-7.1547,-7.1572,-7.1663,-7.1764,-7.1755,-7.1874,-7.1934,-7.2051,-7.2091,-7.2184,-7.2141,-7.2186,-7.2197,-7.2208,-7.222,-7.1911,-7.22,-7.2199,-7.2198,-7.2198,-7.2197,0,-7.1382,-7.142,-7.1514,-7.161,-7.169,-7.1649,-7.1721,-7.1791,-7.1897,-7.1957,-7.2038,-7.2161,-7.2259,-7.2293,-7.2387,-7.2455,-7.244,-7.248,-7.2475,-7.2483,-7.2253,-7.2217,-7.249,-7.249,-7.249,-7.249,-7.249,-7.249,-7.1541,-7.1689,-7.1698,-7.187,-7.1906,-7.2024,-7.2069,-7.2127,-7.2175,-7.2315,-7.2397,-7.2419,-7.2468,-7.2565,-7.2653,-7.266,-7.2697,-7.2743,-7.2744,-7.2529,-7.2499,-7.2471,-7.2437,-7.2751,-7.2752,-7.2965,-7.2967,-7.2969]}]]